Starlink 32125

operational
NORAD ID: 60260 Int'l Des: 2024-131 Owner: SPXS Country: US Constellation: starlink
LEOCIRCULAR

About Starlink 32125

Description loading...

Live Position

Loading 3D Globe...

Upcoming Passes

Altitude History

Altitude vs Time

uPlot chart will show altitude changes over time

Two-Line Element Set

1 60260U 24131F 25258.38736602 .00001324 00000-0 56798-4 0 9991
2 60260 53.1605 146.3652 0001257 86.5354 273.5791 15.30208174 64880
Epoch: Sep 15, 2025 • Age: 18 hours

Current Status

Altitude 475.7 km
Velocity 7.63 km/s
Sub-Earth Point 25.11°N, 100.62°W
Launch Date Jul 27, 2024
Age 1.1 years
Type internet

Technical Details

Classification Payload
Mass 730.00 kg
Dry Mass 700.00 kg
Total Mass 730.00 kg
Length 0.30 m
Diameter 4.10 m
Span 29.00 m
Shape Box + pan
Manufacturer SPXS
Bus Type Starlink V2M
Phase Status In Orbit
Owner/State SPXS/US

Large Constellations

Loading constellations...